Location: Hains Lake
(37.8540°N, 99.8578°W)
Time: 23:27:05
(UTC+00:00)

Explorer 7 - Pass Details

Date: 20 April 2021
Orbit: 484 x 677 km, 50.3° (Epoch: 14 May)

Event Time Altitude Azimuth Distance (km) Brightness Sun altitude
Rises 04:33:11 0° 286° (WNW) 2,693 11.0 -32.5°
Reaches altitude 10° 04:35:59 10° 306° (NW) 1,841 10.3 -32.9°
Maximum altitude 04:38:52 18° 350° (N) 1,454 9.5 -33.2°
Enters shadow 04:39:16 17° 357° (N) 1,468 9.5 -33.2°
